Tracking 27079 objects as of 23-Mar-2023
HD Live streaming from Space Station
objects crossing your sky now

SL-16 DEB

Track SL-16 DEB now!
10-day predictions


NORAD ID: 28357
Int'l Code: 2004-021F
Perigee: 848.1 km
Apogee: 1,143.5 km
Inclination: 71.1 °
Period: 104.9 minutes
Semi major axis: 7366 km
RCS: 0.0866 m2 (small)
Launch date: June 10, 2004
Source: Commonwealth of Independent States (former USSR) (CIS)
Launch site: TYURATAM MISSILE AND SPACE COMPLEX (TTMTR)

Note: This is SATELLITE DEBRIS
Your satellite tracking list
Your tracking list is empty




NASA's NSSDC Master Catalog

Two Line Element Set (TLE):
1 28357U 04021F   23081.93377039  .00000132  00000-0  16383-3 0  9997
2 28357  71.0710 270.0092 0200552 343.1967 125.7422 13.73044420940622
Source of the keplerian elements: AFSPC